[[{"header":{"parameterUnit":"m.s-1","parameterCategory":1,"la1":30.2991,"la2":30.254,"lo1":-89.0895,"lo2":-89.0444,"dy":0.0017,"dx":0.0017,"nx":28,"ny":28,"refTime":"2023-08-26T09:00:00:Z","depth":0,"parameterNumber":2,"parameterNumberName":"U-component_of_WINDS"},"data":[0,0,0,0,0,0,0,0,0,0,0,0,0,0,0,0,0,0,0,0,0,0,0,0,0,0,0,0,0,0,0,0,0,0,0,0,0,0,0,0,0,0,0,0,0,0,0,0,0,0,0,0,0,0,0,0,0,0,-0.1934,-0.1934,0,-0.194,-0.194,-0.194,-0.1918,-0.1917,-0.1916,-0.1916,-0.1923,-0.1924,-0.1925,0,0,0,0,0,0,0,0,0,0,0,0,0,-0.1905,-0.1905,-0.1934,-0.1934,-0.1934,-0.194,-0.194,-0.194,-0.1918,-0.1917,-0.1916,-0.1915,-0.1923,-0.1924,-0.1925,0,0,0,0,0,0,0,0,0,0,0,0,0,-0.1915,-0.1906,-0.1934,-0.1923,-0.1923,-0.194,-0.194,-0.194,-0.1918,-0.1917,-0.1916,-0.1915,-0.1922,-0.1924,-0.1925,-0.1953,0,0,-0.1929,-0.1929,0,0,0,0,0,0,0,0,-0.1914,-0.1916,-0.1925,-0.1924,-0.1923,-0.1927,-0.1933,-0.1945,-0.1918,-0.192,-0.1916,-0.1914,-0.1925,-0.1926,-0.193,-0.1953,-0.1954,-0.1929,-0.193,-0.193,-0.193,0,0,0,0,0,0,0,-0.1914,-0.1916,-0.1936,-0.1925,-0.1924,-0.1919,-0.192,-0.1935,-0.1928,-0.1919,-0.1918,-0.1919,-0.1925,-0.1929,-0.193,-0.1954,-0.1929,-0.193,-0.1931,-0.1931,-0.2003,-0.2004,0,0,0,0,0,0,-0.1914,-0.1915,-0.1936,-0.1937,-0.1916,-0.1921,-0.1921,-0.1927,-0.1928,-0.1927,-0.192,-0.1918,-0.1927,-0.1928,-0.193,-0.1963,-0.193,-0.1931,-0.1932,-0.2002,-0.2003,-0.2004,0,0,0,0,0,0,-0.1914,-0.1916,-0.1936,-0.1925,-0.1928,-0.1922,-0.1929,-0.1928,-0.1931,-0.1928,-0.1927,-0.1925,-0.1926,-0.1928,-0.1948,-0.1963,-0.1932,-0.1933,-0.2,-0.2002,-0.2004,-0.2031,0,0,0,0,0,0,-0.1913,-0.1916,-0.1926,-0.1926,-0.1928,-0.1953,-0.193,-0.1928,-0.1933,-0.1931,-0.1933,-0.1932,-0.1925,-0.1946,-0.1949,-0.1965,-0.1934,-0.1999,-0.2001,-0.2003,-0.2028,-0.2033,-0.2037,0,0,0,0,0,-0.1912,-0.1933,-0.1927,-0.1929,-0.194,-0.1954,-0.1955,-0.1947,-0.1935,-0.1945,-0.1944,-0.1932,-0.1962,-0.1948,-0.1951,-0.1968,-0.1998,-0.2,-0.2003,-0.2026,-0.2032,-0.2037,0,0,0,0,0,0,-0.1935,-0.1933,-0.1925,-0.1947,-0.1951,-0.195,-0.1963,-0.1954,-0.1961,-0.1958,-0.1949,-0.1949,-0.1971,-0.1971,-0.1957,-0.1996,-0.1978,-0.1981,-0.1994,-0.2,-0.2004,-0.2003,-0.1935,0,0,0,0,0,-0.1943,-0.1954,-0.1951,-0.1971,-0.1973,-0.1968,-0.1973,-0.1967,-0.1971,-0.1972,-0.1972,-0.1976,-0.1986,-0.1993,-0.2003,-0.2029,-0.2029,-0.2042,-0.2046,-0.205,-0.2053,-0.2067,-0.2073,-0.2013,-0.2013,-0.2013,0,0,-0.1959,-0.1959,-0.1966,-0.1976,-0.1978,-0.199,-0.1969,-0.1982,-0.1991,-0.1974,-0.1992,-0.1993,-0.1997,-0.202,-0.2031,-0.2021,-0.207,-0.2053,-0.2056,-0.2057,-0.2071,-0.2076,-0.2082,-0.2014,-0.2014,-0.2014,0,0,-0.1994,-0.1995,-0.2012,-0.2015,-0.2019,-0.2015,-0.2019,-0.202,-0.202,-0.2038,-0.2026,-0.2037,-0.2055,-0.2058,-0.2063,-0.2102,-0.2092,-0.2105,-0.2128,-0.2143,-0.2148,-0.2152,-0.2166,-0.2171,-0.2108,-0.2108,-0.2109,0,-0.2014,-0.2031,-0.2022,-0.2036,-0.2041,-0.2027,-0.2045,-0.2048,-0.2054,-0.2059,-0.2048,-0.2071,-0.2073,-0.2098,-0.2107,-0.2111,-0.2116,-0.2104,-0.2147,-0.2152,-0.2155,-0.2169,-0.2174,-0.211,-0.211,-0.211,-0.211,0,-0.2055,-0.2067,-0.208,-0.2087,-0.2094,-0.211,-0.2104,-0.2112,-0.2106,-0.2104,-0.2124,-0.2126,-0.2136,-0.2142,-0.2136,-0.2166,-0.216,-0.2149,-0.213,-0.2163,-0.2175,-0.218,-0.2112,-0.2112,-0.2111,-0.2111,0,0,-0.2103,-0.2106,-0.2111,-0.2115,-0.2119,-0.2128,-0.2144,-0.2154,-0.2161,-0.2167,-0.2181,-0.2197,-0.2187,-0.2192,-0.2187,-0.22,-0.2231,-0.2187,-0.2187,-0.2195,-0.2265,-0.2274,-0.228,-0.2225,-0.2226,-0.2227,-0.2265,0,-0.2138,-0.2165,-0.2158,-0.2185,-0.2197,-0.2184,-0.2198,-0.2203,-0.2202,-0.2213,-0.2212,-0.2224,-0.221,-0.2213,-0.2225,-0.2225,-0.2245,-0.2222,-0.2238,-0.2239,-0.2237,-0.2286,-0.2294,-0.233,-0.227,-0.2271,-0.2271,0,-0.2182,-0.2189,-0.2217,-0.222,-0.2225,-0.2237,-0.2246,-0.2256,-0.2262,-0.2261,-0.2267,-0.226,-0.2277,-0.2259,-0.2283,-0.2267,-0.2274,-0.2275,-0.2276,-0.2277,-0.2256,-0.2288,-0.2341,-0.2347,-0.2279,-0.2278,-0.2278,0,-0.2214,-0.2232,-0.2251,-0.2254,-0.2258,-0.2267,-0.227,-0.2274,-0.2281,-0.2289,-0.2294,-0.2304,-0.231,-0.2319,-0.2315,-0.2302,-0.234,-0.2321,-0.2339,-0.234,-0.2347,-0.2346,-0.2402,-0.2352,-0.2352,-0.2352,-0.2352,0,-0.2254,-0.2271,-0.2266,-0.2277,-0.2297,-0.2291,-0.2311,-0.2312,-0.2316,-0.2329,-0.2319,-0.2331,-0.2325,-0.2337,-0.2334,-0.2355,-0.2358,-0.2357,-0.2356,-0.2358,-0.2358,-0.2362,-0.2359,-0.2353,-0.2353,-0.2353,-0.2352,0,-0.2293,-0.229,-0.231,-0.2313,-0.2314,-0.2328,-0.2331,-0.2343,-0.2342,-0.2358,-0.2361,-0.236,-0.2374,-0.2371,-0.2386,-0.2384,-0.241,-0.2406,-0.2408,-0.2407,-0.2425,-0.2424,-0.2485,-0.2493,-0.2438,-0.2438,-0.2439,0,-0.2318,-0.2331,-0.2336,-0.2343,-0.2346,-0.2358,-0.2365,-0.236,-0.2368,-0.2376,-0.2387,-0.24,-0.241,-0.2432,-0.2433,-0.2445,-0.2441,-0.2462,-0.2443,-0.2445,-0.2442,-0.2441,-0.2443,-0.2466,-0.2466,-0.2467,-0.2467,0,-0.2363,-0.2361,-0.2371,-0.2381,-0.239,-0.2398,-0.2405,-0.2412,-0.2407,-0.2417,-0.2431,-0.2438,-0.2454,-0.2467,-0.2479,-0.2482,-0.2474,-0.2473,-0.2478,-0.248,-0.248,-0.2481,-0.2418,-0.2472,-0.2471,-0.2471,-0.2471,-0.247,-0.2396,-0.2407,-0.2413,-0.2425,-0.2429,-0.2437,-0.2448,-0.2449,-0.246,-0.2472,-0.2469,-0.2485,-0.2491,-0.2506,-0.2511,-0.2524,-0.2516,-0.2523,-0.2525,-0.2526,-0.2529,-0.2479,-0.2526,-0.2526,-0.2525,-0.2525,-0.2525,0,-0.244,-0.2443,-0.2454,-0.2465,-0.2475,-0.2466,-0.2474,-0.2483,-0.2497,-0.2504,-0.2514,-0.2531,-0.2544,-0.2547,-0.2559,-0.2569,-0.2566,-0.2573,-0.2572,-0.2573,-0.2535,-0.2529,-0.2575,-0.2575,-0.2575,-0.2575,-0.2575,-0.2575,-0.2465,-0.2484,-0.2483,-0.2506,-0.2509,-0.2524,-0.2529,-0.2536,-0.2541,-0.256,-0.2571,-0.2573,-0.2578,-0.2591,-0.2604,-0.2604,-0.2609,-0.2617,-0.2617,-0.2581,-0.2576,-0.2571,-0.2566,-0.2619,-0.2619,-0.2654,-0.2654,-0.2655]},{"header":{"parameterUnit":"m.s-1","parameterCategory":1,"la1":30.2991,"la2":30.254,"lo1":-89.0895,"lo2":-89.0444,"dy":0.0017,"dx":0.0017,"nx":28,"ny":28,"refTime":"2023-08-26T09:00:00:Z","depth":0,"parameterNumber":3,"parameterNumberName":"V-component_of_WINDS"},"data":[0,0,0,0,0,0,0,0,0,0,0,0,0,0,0,0,0,0,0,0,0,0,0,0,0,0,0,0,0,0,0,0,0,0,0,0,0,0,0,0,0,0,0,0,0,0,0,0,0,0,0,0,0,0,0,0,0,0,3.368,3.3682,0,3.3825,3.3827,3.3829,3.3927,3.3928,3.3929,3.3929,3.4073,3.4076,3.4079,0,0,0,0,0,0,0,0,0,0,0,0,0,3.3482,3.3486,3.368,3.3682,3.3684,3.3825,3.3827,3.3829,3.3927,3.3928,3.3929,3.393,3.4072,3.4075,3.4079,0,0,0,0,0,0,0,0,0,0,0,0,0,3.3592,3.3487,3.368,3.375,3.3758,3.3825,3.3827,3.383,3.3927,3.3928,3.3929,3.393,3.407,3.4075,3.408,3.4087,0,0,3.4094,3.4096,0,0,0,0,0,0,0,0,3.3585,3.3599,3.3738,3.3745,3.3754,3.386,3.381,3.3916,3.3927,3.3863,3.3929,3.3931,3.4,3.4011,3.4036,3.4093,3.41,3.4094,3.4097,3.4099,3.4101,0,0,0,0,0,0,0,3.3578,3.3593,3.3738,3.374,3.375,3.3772,3.3789,3.383,3.3923,3.3868,3.3876,3.3892,3.4005,3.4031,3.404,3.4102,3.4094,3.4098,3.4101,3.4103,3.4171,3.417,0,0,0,0,0,0,3.356,3.3586,3.3733,3.3742,3.3671,3.3775,3.3794,3.3824,3.3923,3.394,3.3891,3.3896,3.4022,3.4034,3.4045,3.406,3.4099,3.4104,3.4106,3.4172,3.4171,3.417,0,0,0,0,0,0,3.3555,3.3572,3.3727,3.3666,3.3688,3.3777,3.3811,3.3827,3.3853,3.394,3.3957,3.39,3.4024,3.4038,3.4076,3.4066,3.4106,3.411,3.4174,3.4172,3.4171,3.4089,0,0,0,0,0,0,3.3549,3.357,3.3575,3.3666,3.3691,3.3757,3.381,3.3829,3.3861,3.3869,3.3954,3.3969,3.4026,3.4068,3.408,3.4073,3.4114,3.4175,3.4173,3.4171,3.4093,3.4085,3.4078,0,0,0,0,0,3.3542,3.3545,3.3575,3.3592,3.3699,3.3756,3.377,3.3837,3.386,3.3865,3.3921,3.3966,3.4065,3.4071,3.4086,3.408,3.4176,3.4173,3.4171,3.4096,3.4086,3.4078,0,0,0,0,0,0,3.345,3.3559,3.3592,3.3626,3.3681,3.3773,3.3781,3.3825,3.3873,3.3879,3.3958,3.3976,3.4005,3.4046,3.4051,3.4091,3.4126,3.4126,3.4064,3.4055,3.4048,3.4037,3.4118,0,0,0,0,0,3.3434,3.3473,3.3565,3.3585,3.3611,3.3691,3.3718,3.3765,3.3825,3.3848,3.3907,3.3962,3.4006,3.4033,3.4077,3.4099,3.4118,3.4102,3.4094,3.4088,3.4087,3.4101,3.4095,3.4163,3.4163,3.4163,0,0,3.34,3.3464,3.3484,3.3568,3.3617,3.3653,3.371,3.3747,3.3775,3.3853,3.3893,3.3937,3.4004,3.4033,3.4049,3.4068,3.4073,3.4085,3.4079,3.4083,3.4098,3.4092,3.4086,3.4161,3.4161,3.4162,0,0,3.3358,3.3411,3.3434,3.3481,3.3554,3.3607,3.3612,3.3697,3.373,3.3771,3.3831,3.3864,3.3937,3.3982,3.4014,3.3987,3.403,3.3999,3.396,3.3973,3.3967,3.3963,3.3953,3.3949,3.3999,3.3998,3.3998,0,3.3307,3.3367,3.3439,3.3473,3.3507,3.3582,3.3604,3.3646,3.3728,3.375,3.3771,3.3864,3.3914,3.3954,3.3948,3.3971,3.3979,3.3991,3.3963,3.3959,3.3956,3.3947,3.3943,3.3994,3.3995,3.3995,3.3995,0,3.33,3.334,3.335,3.3429,3.3465,3.3492,3.3567,3.3594,3.3636,3.3686,3.3726,3.3788,3.3847,3.3859,3.3901,3.3905,3.3915,3.3948,3.3984,3.3944,3.3937,3.3935,3.3988,3.399,3.3991,3.3992,0,0,3.3206,3.3325,3.3327,3.3364,3.3449,3.348,3.351,3.3569,3.359,3.3643,3.367,3.373,3.3761,3.3797,3.3844,3.3855,3.3829,3.3887,3.3889,3.3873,3.3836,3.3811,3.3806,3.3857,3.3857,3.3857,3.3831,0,3.3177,3.3237,3.3302,3.3338,3.3375,3.3445,3.3471,3.3525,3.3571,3.3608,3.3659,3.3701,3.3739,3.3761,3.3775,3.3829,3.3822,3.3832,3.3881,3.3882,3.3863,3.3803,3.3777,3.375,3.3829,3.3828,3.3828,0,3.3153,3.3204,3.3244,3.3325,3.3343,3.3365,3.3424,3.3459,3.352,3.3553,3.3593,3.3643,3.3676,3.3707,3.3753,3.3758,3.3782,3.3811,3.3812,3.3819,3.3853,3.3809,3.3743,3.3739,3.3824,3.3825,3.3825,0,3.308,3.3159,3.3194,3.3223,3.3318,3.3331,3.3371,3.3434,3.3465,3.3515,3.3535,3.3587,3.3616,3.3655,3.3717,3.3734,3.3756,3.3792,3.3783,3.3782,3.3785,3.3784,3.3722,3.38,3.38,3.38,3.38,0,3.3041,3.3063,3.3162,3.3183,3.3209,3.3282,3.3304,3.335,3.3405,3.3435,3.3498,3.3524,3.3605,3.364,3.3688,3.3718,3.3731,3.3758,3.377,3.3752,3.3749,3.377,3.3773,3.3799,3.3799,3.3799,3.3799,0,3.2965,3.3033,3.3074,3.3161,3.3183,3.3197,3.3271,3.3293,3.3342,3.3379,3.3392,3.347,3.3514,3.358,3.3644,3.3677,3.3699,3.372,3.3679,3.3687,3.3674,3.3674,3.3623,3.362,3.3698,3.3697,3.3697,0,3.2937,3.2955,3.3043,3.3068,3.3107,3.3146,3.3178,3.3249,3.3279,3.335,3.3363,3.3412,3.3456,3.3524,3.3585,3.3634,3.3656,3.3635,3.3664,3.3645,3.3656,3.3655,3.3656,3.3628,3.3627,3.3626,3.3625,0,3.2879,3.2911,3.2955,3.301,3.3046,3.3093,3.3142,3.3159,3.324,3.3271,3.3318,3.3351,3.3417,3.3465,3.3522,3.3562,3.3606,3.3615,3.3616,3.3598,3.3574,3.3587,3.366,3.3616,3.3617,3.3618,3.3618,3.3619,3.2827,3.2846,3.2911,3.2957,3.3002,3.3046,3.3071,3.3124,3.3164,3.3224,3.3263,3.3308,3.3367,3.3449,3.3486,3.352,3.354,3.354,3.3541,3.354,3.3533,3.3567,3.3531,3.3531,3.3532,3.3532,3.3532,0,3.2772,3.2817,3.2859,3.2926,3.2962,3.3002,3.3058,3.3085,3.3124,3.3176,3.3218,3.3271,3.3317,3.3382,3.3433,3.3448,3.347,3.3459,3.3459,3.3467,3.3513,3.3508,3.344,3.344,3.344,3.344,3.344,3.344,3.2749,3.2783,3.2822,3.2879,3.2923,3.2968,3.2997,3.3037,3.3079,3.3136,3.3175,3.3217,3.3274,3.3329,3.3373,3.3391,3.3407,3.3389,3.3413,3.3455,3.3464,3.3472,3.3467,3.3392,3.3392,3.3364,3.3364,3.3364]}]]